HISTORICAL SENSOR DATA

Sensor Data Report

DB LIVE
CURRENT TIME--:--:--
DEVICE NETWORK Gateway Status
13 ESP · realtime ~1s · history 60s
Weather WS-MOD-01
OFFLINE
Actuator ACT-MOD-01
OFFLINE
Mainboard L3 MB-L3-01
OFFLINE
Mainboard L5 MB-L5-01
OFFLINE
Remote AC AC-REMOTE-01
OFFLINE
PZEM L3-01 PWR-L3-01
OFFLINE
PZEM L3-02 PWR-L3-02
OFFLINE
PZEM L3-03 PWR-L3-03
OFFLINE
PZEM L3-04 PWR-L3-04
OFFLINE
PZEM L5-01 PWR-L5-01
OFFLINE
PZEM L5-02 PWR-L5-02
OFFLINE
PZEM L5-03 PWR-L5-03
OFFLINE
PZEM L5-04 PWR-L5-04
OFFLINE
REPORT FILTER

Periode & Sensor

DATABASE HISTORY
RESET
QUICK RANGE Hari ini 7 hari 30 hari
PERIODE31 Aug 2026sampai 06 Sep 2026
TOTAL DATA41,832sensor readings
MINIMUM-0.50sesuai filter
AVERAGE64.67sesuai filter
MAXIMUM11,921.20sesuai filter
REPORT RESULT

Data Sensor

31/08/2026 — 06/09/2026 EXPORT CSV
NOTANGGALWAKTUDEVICECHANNELSENSORVALUEUNIT
11501 02/09/2026 15:24:08 WS-MOD-01Weather Station Module WS-RH Kelembapan Udara 63.10 %RH
11502 02/09/2026 15:24:08 WS-MOD-01Weather Station Module WS-PRES Tekanan Udara 998.00 hPa
11503 02/09/2026 15:24:08 WS-MOD-01Weather Station Module WS-DIR Arah Angin 299.10 °
11504 02/09/2026 15:24:08 WS-MOD-01Weather Station Module WS-WIND Kecepatan Angin 0.02 m/s
11505 02/09/2026 15:24:04 WS-MOD-01Weather Station Module WS-PRES Tekanan Udara 998.00 hPa
11506 02/09/2026 15:24:04 WS-MOD-01Weather Station Module WS-DIR Arah Angin 299.50 °
11507 02/09/2026 15:24:04 WS-MOD-01Weather Station Module WS-WIND Kecepatan Angin 0.02 m/s
11508 02/09/2026 15:24:04 WS-MOD-01Weather Station Module WS-TEMP Suhu Udara 29.70 °C
11509 02/09/2026 15:24:04 WS-MOD-01Weather Station Module WS-RH Kelembapan Udara 63.50 %RH
11510 02/09/2026 15:23:59 WS-MOD-01Weather Station Module WS-DIR Arah Angin 298.10 °
11511 02/09/2026 15:23:59 WS-MOD-01Weather Station Module WS-WIND Kecepatan Angin 0.02 m/s
11512 02/09/2026 15:23:59 WS-MOD-01Weather Station Module WS-TEMP Suhu Udara 29.80 °C
11513 02/09/2026 15:23:59 WS-MOD-01Weather Station Module WS-RH Kelembapan Udara 63.50 %RH
11514 02/09/2026 15:23:59 WS-MOD-01Weather Station Module WS-PRES Tekanan Udara 998.00 hPa
11515 02/09/2026 15:23:54 WS-MOD-01Weather Station Module WS-WIND Kecepatan Angin 0.03 m/s
11516 02/09/2026 15:23:54 WS-MOD-01Weather Station Module WS-TEMP Suhu Udara 29.70 °C
11517 02/09/2026 15:23:54 WS-MOD-01Weather Station Module WS-RH Kelembapan Udara 63.50 %RH
11518 02/09/2026 15:23:54 WS-MOD-01Weather Station Module WS-PRES Tekanan Udara 998.00 hPa
11519 02/09/2026 15:23:54 WS-MOD-01Weather Station Module WS-DIR Arah Angin 303.50 °
11520 02/09/2026 15:23:48 WS-MOD-01Weather Station Module WS-TEMP Suhu Udara 29.70 °C
11521 02/09/2026 15:23:48 WS-MOD-01Weather Station Module WS-RH Kelembapan Udara 63.40 %RH
11522 02/09/2026 15:23:48 WS-MOD-01Weather Station Module WS-PRES Tekanan Udara 998.00 hPa
11523 02/09/2026 15:23:48 WS-MOD-01Weather Station Module WS-DIR Arah Angin 302.30 °
11524 02/09/2026 15:23:48 WS-MOD-01Weather Station Module WS-WIND Kecepatan Angin 0.01 m/s
11525 02/09/2026 15:23:44 WS-MOD-01Weather Station Module WS-RH Kelembapan Udara 63.50 %RH
11526 02/09/2026 15:23:44 WS-MOD-01Weather Station Module WS-PRES Tekanan Udara 998.00 hPa
11527 02/09/2026 15:23:44 WS-MOD-01Weather Station Module WS-DIR Arah Angin 298.70 °
11528 02/09/2026 15:23:44 WS-MOD-01Weather Station Module WS-WIND Kecepatan Angin 0.04 m/s
11529 02/09/2026 15:23:44 WS-MOD-01Weather Station Module WS-TEMP Suhu Udara 29.70 °C
11530 02/09/2026 15:23:43 WS-MOD-01Weather Station Module WS-PRES Tekanan Udara 998.00 hPa
11531 02/09/2026 15:23:43 WS-MOD-01Weather Station Module WS-DIR Arah Angin 300.40 °
11532 02/09/2026 15:23:43 WS-MOD-01Weather Station Module WS-WIND Kecepatan Angin 0.02 m/s
11533 02/09/2026 15:23:43 WS-MOD-01Weather Station Module WS-TEMP Suhu Udara 29.70 °C
11534 02/09/2026 15:23:43 WS-MOD-01Weather Station Module WS-RH Kelembapan Udara 63.50 %RH
11535 02/09/2026 15:23:37 WS-MOD-01Weather Station Module WS-WIND Kecepatan Angin 0.02 m/s
11536 02/09/2026 15:23:37 WS-MOD-01Weather Station Module WS-TEMP Suhu Udara 29.70 °C
11537 02/09/2026 15:23:37 WS-MOD-01Weather Station Module WS-RH Kelembapan Udara 63.50 %RH
11538 02/09/2026 15:23:37 WS-MOD-01Weather Station Module WS-PRES Tekanan Udara 998.00 hPa
11539 02/09/2026 15:23:37 WS-MOD-01Weather Station Module WS-DIR Arah Angin 288.70 °
11540 02/09/2026 15:23:27 WS-MOD-01Weather Station Module WS-WIND Kecepatan Angin 0.04 m/s
11541 02/09/2026 15:23:27 WS-MOD-01Weather Station Module WS-TEMP Suhu Udara 29.70 °C
11542 02/09/2026 15:23:27 WS-MOD-01Weather Station Module WS-RH Kelembapan Udara 63.50 %RH
11543 02/09/2026 15:23:27 WS-MOD-01Weather Station Module WS-PRES Tekanan Udara 998.00 hPa
11544 02/09/2026 15:23:27 WS-MOD-01Weather Station Module WS-DIR Arah Angin 279.00 °
11545 02/09/2026 14:55:47 MB-L3-01Mainboard Lantai 3 L3-SHT-01-T SHT20 1 Temperature 32.10 °C
11546 02/09/2026 14:55:47 MB-L5-01Mainboard Lantai 5 L5-SHT-01-RH SHT20 1 Humidity 48.30 %RH
11547 02/09/2026 14:55:47 MB-L5-01Mainboard Lantai 5 L5-AI-03 Analog Input 3 3.05 V
11548 02/09/2026 14:55:47 MB-L3-01Mainboard Lantai 3 L3-HFT-01 Heat Flow Temperature 1 29.40 °C
11549 02/09/2026 14:55:47 MB-L5-01Mainboard Lantai 5 L5-LUX-04 Illuminance / LUX 4 225.80 lux
11550 02/09/2026 14:55:47 MB-L5-01Mainboard Lantai 5 L5-HFT-01 Heat Flow Temperature 1 30.20 °C
11551 02/09/2026 14:55:47 MB-L5-01Mainboard Lantai 5 L5-LUX-05 Illuminance / LUX 5 435.50 lux
11552 02/09/2026 14:55:47 MB-L3-01Mainboard Lantai 3 L3-LUX-02 Illuminance / LUX 2 19.40 lux
11553 02/09/2026 14:55:47 MB-L3-01Mainboard Lantai 3 L3-SHT-01-RH SHT20 1 Humidity 48.20 %RH
11554 02/09/2026 14:55:47 MB-L5-01Mainboard Lantai 5 L5-SHT-01-T SHT20 1 Temperature 32.30 °C
11555 02/09/2026 14:55:47 MB-L3-01Mainboard Lantai 3 L3-AI-02 Analog Input 2 3.12 V
11556 02/09/2026 14:55:47 MB-L5-01Mainboard Lantai 5 L5-SHT-02-T SHT20 2 Temperature 32.20 °C
11557 02/09/2026 14:55:47 MB-L3-01Mainboard Lantai 3 L3-LUX-04 Illuminance / LUX 4 102.40 lux
11558 02/09/2026 14:55:47 MB-L5-01Mainboard Lantai 5 L5-BGT-03 Black Globe Temperature 3 29.90 °C
11559 02/09/2026 14:55:47 MB-L5-01Mainboard Lantai 5 L5-BGT-01 Black Globe Temperature 1 29.90 °C
11560 02/09/2026 14:55:47 MB-L3-01Mainboard Lantai 3 L3-HFT-02 Heat Flow Temperature 2 29.00 °C
11561 02/09/2026 14:55:47 MB-L5-01Mainboard Lantai 5 L5-AI-05 Analog Input 5 3.05 V
11562 02/09/2026 14:55:47 MB-L3-01Mainboard Lantai 3 L3-LUX-03 Illuminance / LUX 3 153.80 lux
11563 02/09/2026 14:55:47 MB-L5-01Mainboard Lantai 5 L5-SHT-02-RH SHT20 2 Humidity 48.10 %RH
11564 02/09/2026 14:55:47 MB-L3-01Mainboard Lantai 3 L3-AI-03 Analog Input 3 3.12 V
11565 02/09/2026 14:55:47 MB-L3-01Mainboard Lantai 3 L3-SHT-02-RH SHT20 2 Humidity 48.20 %RH
11566 02/09/2026 14:55:47 MB-L3-01Mainboard Lantai 3 L3-BGT-01 Black Globe Temperature 1 29.70 °C
11567 02/09/2026 14:55:47 MB-L5-01Mainboard Lantai 5 L5-AI-02 Analog Input 2 3.05 V
11568 02/09/2026 14:55:47 MB-L3-01Mainboard Lantai 3 L3-LUX-01 Illuminance / LUX 1 30.70 lux
11569 02/09/2026 14:55:47 MB-L5-01Mainboard Lantai 5 L5-LUX-02 Illuminance / LUX 2 122.40 lux
11570 02/09/2026 14:55:47 MB-L3-01Mainboard Lantai 3 L3-RAD-02 Radiation 2 1.00 W/m²
11571 02/09/2026 14:55:47 MB-L5-01Mainboard Lantai 5 L5-LUX-03 Illuminance / LUX 3 179.80 lux
11572 02/09/2026 14:55:47 MB-L5-01Mainboard Lantai 5 L5-ST-02 Surface Temperature 2 30.50 °C
11573 02/09/2026 14:55:47 MB-L3-01Mainboard Lantai 3 L3-AI-04 Analog Input 4 3.12 V
11574 02/09/2026 14:55:47 MB-L3-01Mainboard Lantai 3 L3-BGT-02 Black Globe Temperature 2 29.70 °C
11575 02/09/2026 14:55:47 MB-L3-01Mainboard Lantai 3 L3-RAD-01 Radiation 1 1.00 W/m²
11576 02/09/2026 14:55:47 MB-L5-01Mainboard Lantai 5 L5-BGT-02 Black Globe Temperature 2 29.90 °C
11577 02/09/2026 14:55:47 MB-L5-01Mainboard Lantai 5 L5-HFT-02 Heat Flow Temperature 2 30.00 °C
11578 02/09/2026 14:55:47 MB-L5-01Mainboard Lantai 5 L5-AI-04 Analog Input 4 3.05 V
11579 02/09/2026 14:55:47 MB-L5-01Mainboard Lantai 5 L5-SHT-03-T SHT20 3 Temperature 32.00 °C
11580 02/09/2026 14:55:47 MB-L3-01Mainboard Lantai 3 L3-ST-01 Surface Temperature 1 29.80 °C
11581 02/09/2026 14:55:47 MB-L5-01Mainboard Lantai 5 L5-LUX-01 Illuminance / LUX 1 208.50 lux
11582 02/09/2026 14:55:47 MB-L5-01Mainboard Lantai 5 L5-SHT-03-RH SHT20 3 Humidity 48.50 %RH
11583 02/09/2026 14:55:47 MB-L3-01Mainboard Lantai 3 L3-AI-05 Analog Input 5 3.12 V
11584 02/09/2026 14:55:47 MB-L5-01Mainboard Lantai 5 L5-RAD-02 Radiation 2 1.00 W/m²
11585 02/09/2026 14:55:47 MB-L5-01Mainboard Lantai 5 L5-RAD-01 Radiation 1 1.00 W/m²
11586 02/09/2026 14:55:47 MB-L3-01Mainboard Lantai 3 L3-SHT-02-T SHT20 2 Temperature 32.00 °C
11587 02/09/2026 14:55:47 MB-L3-01Mainboard Lantai 3 L3-BGT-03 Black Globe Temperature 3 28.90 °C
11588 02/09/2026 14:55:47 MB-L5-01Mainboard Lantai 5 L5-AI-06 Analog Input 6 3.05 V
11589 02/09/2026 14:55:47 MB-L3-01Mainboard Lantai 3 L3-LUX-05 Illuminance / LUX 5 56.60 lux
11590 02/09/2026 14:55:47 MB-L3-01Mainboard Lantai 3 L3-ST-02 Surface Temperature 2 29.70 °C
11591 02/09/2026 14:55:47 MB-L5-01Mainboard Lantai 5 L5-AI-01 Analog Input 1 3.05 V
11592 02/09/2026 14:55:47 MB-L3-01Mainboard Lantai 3 L3-AI-06 Analog Input 6 3.12 V
11593 02/09/2026 14:55:47 MB-L3-01Mainboard Lantai 3 L3-LUX-06 Illuminance / LUX 6 31.30 lux
11594 02/09/2026 14:55:47 MB-L5-01Mainboard Lantai 5 L5-ST-01 Surface Temperature 1 30.30 °C
11595 02/09/2026 14:55:47 MB-L3-01Mainboard Lantai 3 L3-AI-01 Analog Input 1 3.12 V
11596 02/09/2026 14:55:47 MB-L5-01Mainboard Lantai 5 L5-LUX-06 Illuminance / LUX 6 247.20 lux
11597 02/09/2026 14:55:45 MB-L5-01Mainboard Lantai 5 L5-BGT-01 Black Globe Temperature 1 30.00 °C
11598 02/09/2026 14:55:45 MB-L3-01Mainboard Lantai 3 L3-HFT-02 Heat Flow Temperature 2 28.90 °C
11599 02/09/2026 14:55:45 MB-L5-01Mainboard Lantai 5 L5-AI-05 Analog Input 5 3.05 V
11600 02/09/2026 14:55:45 MB-L3-01Mainboard Lantai 3 L3-LUX-03 Illuminance / LUX 3 147.50 lux
Menampilkan maksimal 100 data per halaman